This demonstration page uses our WeatherBlox Daily Observations layout. Learn more.

Left ArrowRight Arrow

41.55636, -103.73856

Hourly Observations for March 17, 2021

Temp ( °F °C ) Dew Point ( °F °C ) Humidity (%) Winds ( mph kmh ) Pressure ( in mb ) Visibility ( mi km ) Precip ( " mm )
12:58 am 00:58 Mostly Cloudy 27 -3 25 -4.1 92 92 NNW 21 33 30.08 1019 10 16 0.00 0.00
1:56 am 01:56 Windy with Snow Showers Likely 25 -4 23 -5.1 92 92 NNW 22 35 30.08 1019 3 4 0.00 0.00
2:56 am 02:56 Mostly Cloudy with Mist and Fog 24 -4.4 22 -5.4 93 93 NNW 23 37 30.08 1019 3 4 0.00 0.00
4:58 am 04:58 Cloudy 24 -4.3 22 -5.4 92 92 N 14 22 30.14 1021 10 16 0.00 0.00
5:58 am 05:58 Cloudy 25 -4.1 22 -5.3 91 91 N 22 35 30.14 1021 10 16 0.00 0.00
6:58 am 06:58 Cloudy with Light Snow 25 -4.1 23 -5.2 92 92 NNW 18 30 30.19 1022 4 6 0.00 0.00
7:58 am 07:58 Cloudy 25 -3.9 23 -5.1 91 91 N 21 33 30.21 1023 10 16 0.00 0.00
8:56 am 08:56 Cloudy 26 -3.6 23 -4.8 92 92 N 20 31 30.24 1024 10 16 0.00 0.00
9:56 am 09:56 Cloudy 26 -3.3 24 -4.7 90 90 NNW 20 31 30.23 1024 10 16 0.00 0.00
10:58 am 10:58 Mostly Cloudy 27 -3 24 -4.6 89 89 NNW 20 31 30.23 1024 10 16 0.00 0.00
11:58 am 11:58 Mostly Cloudy 28 -2.5 24 -4.4 87 87 NNW 17 28 30.24 1024 10 16 0.00 0.00
12:58 pm 12:58 Cloudy 28 -2.2 22 -5.7 77 77 NNW 22 35 30.26 1025 10 16 0.00 0.00
1:58 pm 13:58 Mostly Cloudy 29 -1.8 21 -6.3 72 72 NNW 20 31 30.26 1025 10 16 0.00 0.00
2:58 pm 14:58 Sunny 30 -1.3 21 -6 71 71 NW 18 30 30.25 1024 10 16 0.00 0.00
3:58 pm 15:58 Sunny 30 -1.1 23 -5.1 75 75 NNW 14 22 30.27 1025 10 16 0.00 0.00
4:58 pm 16:58 Sunny 30 -1.2 22 -5.7 72 72 NNW 14 22 30.27 1025 10 16 0.00 0.00
5:58 pm 17:58 Sunny 28 -2.4 21 -6.1 76 76 NNW 12 19 30.28 1025 10 16 0.00 0.00
6:58 pm 18:58 Sunny 22 -5.5 17 -8.2 82 82 NW 13 20 30.33 1027 10 16 0.00 0.00
7:58 pm 19:58 Clear 20 -6.9 16 -8.9 86 86 NNW 5 7 30.32 1027 10 16 0.00 0.00
8:58 pm 20:58 Clear 23 -4.9 18 -8 79 79 NW 6 9 30.32 1027 10 16 0.00 0.00
9:58 pm 21:58 Clear 17 -8.1 13 -10.6 82 82 W 15 24 30.36 1028 10 16 0.00 0.00
10:58 pm 22:58 Clear 18 -7.8 13 -10.4 82 82 W 14 22 30.34 1028 10 16 0.00 0.00
11:58 pm 23:58 Clear 20 -6.9 14 -9.9 79 79 WNW 13 20 30.35 1028 10 16 0.00 0.00

Powered by AerisWeather